QPF
0.00 0.00 0.00 0.00 0.00 0.00 0.00 0.00 0.00 0.00 0.00 0.00 0.00 0.00 0.00 0.00 0.00 0.00 0.00 0.00 0.00 0.00 0.00 0.00 0.00 0.00 0.00 0.00 0.00 0.00 0.00 0.00 0.00
0.00 0.00 0.00 0.00 0.00 0.00 0.00 0.00 0.00 0.00 0.00 0.00 0.00 0.00 0.00 0.00 0.00 0.00 0.00 0.00 0.00 0.00 0.00 0.00 0.00 0.00 0.00 0.00 0.00 0.00 0.00 0.00 0.00
0.00 0.00 0.00 0.00 0.00 0.00 0.00 0.00 0.00 0.00 0.00 0.00 0.00 0.00 0.00 0.00 0.00 0.00 0.00 0.00 0.00 0.00 0.00 0.00 0.00 0.00 0.00 0.00 0.00 0.00 0.00 0.00 0.00
0.00 0.00 0.00 0.00 0.00 0.00 0.00 0.00 0.00 0.00 0.00 0.00 0.00 0.00 0.00 0.00 0.00 0.00 0.00 0.00 0.00 0.00 0.00 0.00 0.00 0.00 0.00 0.00 0.00 0.00 0.00 0.00 0.00
0.00 0.00 0.00 0.00 0.00 0.00 0.00 0.00 0.00 0.00 0.00 0.00 0.00 0.00 0.00 0.00 0.00 0.00 0.00 0.00 0.00 0.00 0.00 0.00 0.00 0.00 0.00 0.00 0.00 0.00 0.00 0.00 0.00
0.00 0.00 0.00 0.00 0.00 0.00 0.00 0.00 0.00 0.00 0.00 0.00 0.00 0.00 0.00 0.00 0.00 0.00 0.00 0.00 0.00 0.00 0.00 0.00 0.00 0.00 0.00 0.00 0.00 0.00 0.00 0.00 0.00
0.00 0.00 0.00 0.00 0.00 0.00 0.00 0.00 0.00 0.00 0.00 0.00 0.00 0.00 0.00 0.00 0.00 0.00 0.00 0.00 0.00 0.00 0.00 0.00 0.00 0.00 0.00 0.00 0.00 0.00 0.00 0.00 0.00
0.00 0.00 0.00 0.00 0.00 0.00 0.00 0.00 0.00 0.00 0.00 0.00 0.00 0.00 0.00 0.00 0.00 0.00 0.00 0.00 0.00 0.00 0.00 0.00 0.00 0.00 0.00 0.00 0.00 0.00 0.00 0.00 0.00
0.00 0.00 0.00 0.00 0.00 0.00 0.00 0.00 0.00 0.00 0.00 0.00 0.00 0.00 0.00 0.00 0.00 0.00 0.00 0.00 0.00 0.00 0.00 0.00 0.00 0.02 0.04 0.01 0.00 0.00 0.00 0.00 0.00
0.00 0.00 0.00 0.00 0.00 0.00 0.00 0.00 0.00 0.00 0.00 0.00 0.00 0.00 0.00 0.00 0.00 0.00 0.00 0.00 0.00 0.00 0.00 0.00 0.01 0.05 0.02 0.04 0.01 0.01 0.00 0.00 0.00
0.00 0.00 0.00 0.00 0.00 0.00 0.00 0.00 0.00 0.00 0.00 0.00 0.00 0.00 0.00 0.00 0.00 0.00 0.00 0.00 0.00 0.00 0.00 0.00 0.02 0.03 0.00 0.01 0.02 0.02 0.02 0.02 0.01
0.00 0.00 0.00 0.00 0.00 0.00 0.00 0.00 0.00 0.00 0.00 0.00 0.00 0.00 0.00 0.00 0.00 0.00 0.00 0.00 0.00 0.00 0.00 0.00 0.01 0.04 0.01 0.01 0.01 0.03 0.01 0.01 0.01
0.00 0.00 0.00 0.00 0.00 0.00 0.00 0.00 0.00 0.00 0.00 0.00 0.00 0.00 0.00 0.00 0.00 0.00 0.00 0.00 0.00 0.00 0.00 0.00 0.00 0.00 0.00 0.03 0.02 0.00 0.00 0.00 0.00
0.00 0.00 0.00 0.00 0.00 0.00 0.00 0.00 0.00 0.00 0.00 0.00 0.00 0.00 0.00 0.00 0.00 0.00 0.00 0.00 0.00 0.00 0.00 0.00 0.00 0.00 0.02 0.05 0.01 0.00 0.00 0.00 0.00
0.00 0.00 0.00 0.00 0.00 0.00 0.00 0.00 0.00 0.00 0.00 0.00 0.00 0.00 0.00 0.00 0.00 0.00 0.00 0.00 0.00 0.00 0.00 0.00 0.00 0.00 0.01 0.00 0.00 0.00 0.00 0.00 0.00
0.00 0.00 0.00 0.00 0.00 0.00 0.00 0.00 0.00 0.00 0.00 0.00 0.00 0.00 0.00 0.00 0.00 0.00 0.00 0.00 0.00 0.00 0.00 0.00 0.00 0.00 0.00 0.00 0.00 0.00 0.00 0.00 0.00
0.01 0.01 0.01 0.00 0.00 0.00 0.00 0.00 0.00 0.00 0.00 0.00 0.00 0.00 0.00 0.00 0.00 0.00 0.00 0.00 0.00 0.00 0.00 0.00 0.00 0.00 0.00 0.00 0.00 0.00 0.00 0.00 0.00
0.14 0.12 0.09 0.03 0.04 0.07 0.07 0.08 0.04 0.01 0.00 0.00 0.00 0.00 0.00 0.00 0.00 0.00 0.00 0.00 0.00 0.00 0.00 0.00 0.00 0.00 0.00 0.00 0.00 0.00 0.00 0.00 0.00
0.25 0.25 0.23 0.23 0.22 0.16 0.14 0.09 0.03 0.03 0.00 0.00 0.00 0.00 0.00 0.00 0.00 0.00 0.00 0.00 0.00 0.00 0.00 0.00 0.00 0.00 0.00 0.00 0.00 0.00 0.00 0.00 0.00
0.37 0.47 0.39 0.47 0.32 0.16 0.09 0.08 0.06 0.02 0.00 0.00 0.00 0.00 0.00 0.00 0.00 0.00 0.00 0.00 0.00 0.00 0.00 0.00 0.00 0.00 0.00 0.00 0.00 0.00 0.00 0.00 0.00
MSLP
1018.72 1019.16 1019.49 1019.74 1019.95 1020.14 1020.48 1020.64 1020.76 1020.82 1020.91 1020.92 1021.15 1021.32 1021.45 1021.53 1021.36 1021.34 1021.29 1021.07 1021.15 1021.04 1021.05 1021.07 1021.11 1021.05 1021.02 1021.01 1021.00 1020.96 1020.99 1020.98 1020.86
1019.02 1019.47 1019.81 1020.09 1020.31 1020.41 1020.66 1020.84 1021.04 1021.05 1021.13 1021.14 1021.28 1021.52 1021.61 1021.46 1021.52 1021.56 1021.47 1021.33 1021.38 1021.39 1021.37 1021.43 1021.36 1021.34 1021.32 1021.30 1021.30 1021.18 1021.07 1021.11 1021.03
1019.21 1019.68 1019.94 1020.25 1020.50 1020.66 1020.82 1021.02 1021.25 1021.39 1021.37 1021.42 1021.57 1021.69 1021.73 1021.63 1021.63 1021.67 1021.55 1021.60 1021.53 1021.59 1021.61 1021.65 1021.59 1021.53 1021.49 1021.44 1021.43 1021.35 1021.24 1021.30 1021.27
1019.36 1019.72 1020.07 1020.29 1020.55 1020.82 1021.00 1021.15 1021.39 1021.55 1021.67 1021.73 1021.84 1021.92 1021.96 1021.70 1021.80 1021.78 1021.67 1021.72 1021.65 1021.72 1021.72 1021.75 1021.75 1021.73 1021.70 1021.66 1021.62 1021.53 1021.49 1021.55 1021.46
1019.74 1019.88 1020.18 1020.49 1020.78 1021.04 1021.22 1021.36 1021.46 1021.55 1021.70 1021.89 1021.97 1022.05 1022.10 1021.84 1021.92 1021.90 1021.88 1021.89 1021.76 1021.81 1021.80 1021.84 1021.87 1021.90 1021.91 1021.87 1021.81 1021.73 1021.73 1021.78 1021.73
1019.90 1020.13 1020.29 1020.58 1020.98 1021.12 1021.35 1021.51 1021.64 1021.77 1021.85 1021.95 1022.02 1022.05 1021.92 1021.88 1021.86 1021.82 1022.00 1021.85 1021.71 1021.76 1021.79 1021.84 1021.87 1021.89 1021.94 1021.95 1021.93 1021.87 1021.90 1021.84 1021.79
1020.06 1020.31 1020.45 1020.62 1021.02 1021.25 1021.38 1021.55 1021.74 1021.82 1021.78 1021.93 1022.08 1021.96 1022.05 1022.00 1021.96 1021.86 1022.01 1021.86 1021.70 1021.71 1021.75 1021.74 1021.71 1021.78 1021.97 1022.05 1021.98 1021.97 1022.02 1021.98 1021.90
1020.17 1020.42 1020.51 1020.64 1021.03 1021.18 1021.32 1021.49 1021.58 1021.73 1021.74 1021.82 1021.84 1021.90 1021.91 1021.86 1021.83 1021.85 1021.89 1021.79 1021.70 1021.58 1021.64 1021.65 1021.67 1021.78 1021.85 1021.88 1021.94 1022.04 1022.06 1022.06 1022.02
1020.18 1020.44 1020.60 1020.66 1020.92 1021.11 1021.29 1021.33 1021.50 1021.58 1021.65 1021.63 1021.63 1021.75 1021.78 1021.70 1021.72 1021.68 1021.87 1021.74 1021.65 1021.54 1021.38 1021.35 1021.37 1021.50 1021.58 1021.49 1021.49 1021.66 1021.81 1021.91 1021.93
1020.09 1020.32 1020.67 1020.70 1020.94 1021.12 1021.23 1021.30 1021.37 1021.40 1021.41 1021.48 1021.43 1021.38 1021.47 1021.51 1021.56 1021.43 1021.61 1021.59 1021.43 1021.31 1021.20 1021.10 1021.07 1021.19 1021.15 1021.19 1021.28 1021.23 1021.44 1021.52 1021.64
1019.76 1020.09 1020.48 1020.61 1020.86 1021.13 1021.20 1021.25 1021.29 1021.26 1021.28 1021.16 1021.17 1021.13 1021.18 1021.23 1021.27 1021.24 1021.14 1021.24 1021.19 1021.18 1020.97 1020.83 1020.78 1020.96 1020.91 1021.03 1021.12 1021.25 1021.30 1021.16 1021.16
1019.39 1019.75 1019.98 1020.17 1020.57 1020.96 1021.23 1021.35 1021.33 1021.29 1021.25 1021.03 1020.91 1020.97 1020.84 1020.92 1020.92 1020.93 1020.86 1020.87 1020.96 1020.78 1020.78 1020.56 1020.49 1020.69 1020.76 1020.86 1021.00 1021.31 1021.39 1021.41 1021.18
1018.92 1019.29 1019.58 1019.81 1020.09 1020.45 1020.83 1020.95 1021.13 1021.08 1021.06 1021.04 1020.77 1020.67 1020.69 1020.78 1020.75 1020.76 1020.63 1020.63 1020.54 1020.58 1020.59 1020.63 1020.51 1020.50 1020.56 1020.72 1021.03 1021.22 1021.22 1021.43 1021.32
1018.55 1018.64 1018.91 1019.39 1019.94 1020.21 1020.34 1020.58 1020.74 1020.74 1020.80 1020.79 1020.60 1020.54 1020.59 1020.38 1020.56 1020.43 1020.51 1020.48 1020.44 1020.34 1020.44 1020.46 1020.47 1020.53 1020.75 1020.76 1021.14 1021.44 1021.30 1021.27 1021.46
1018.42 1018.61 1018.84 1019.01 1019.33 1019.87 1020.25 1020.43 1020.37 1020.39 1020.52 1020.50 1020.25 1020.26 1020.31 1020.30 1020.46 1020.46 1020.58 1020.46 1020.49 1020.49 1020.58 1020.49 1020.68 1020.98 1020.94 1021.15 1021.27 1021.50 1021.83 1021.81 1021.68
1018.19 1018.40 1018.55 1018.81 1018.90 1019.16 1019.59 1020.17 1020.16 1020.12 1020.15 1020.15 1020.03 1020.17 1020.36 1020.41 1020.64 1020.63 1020.53 1020.58 1020.60 1020.69 1020.70 1020.82 1021.17 1021.46 1021.67 1021.85 1021.81 1021.79 1021.93 1021.85 1021.75
1017.52 1017.98 1018.04 1018.32 1018.72 1018.84 1019.38 1019.66 1019.74 1019.61 1019.86 1019.97 1020.15 1020.22 1020.43 1020.61 1020.75 1020.73 1020.81 1021.04 1020.89 1020.85 1021.15 1021.22 1021.58 1021.94 1022.14 1022.14 1022.22 1022.21 1022.06 1022.01 1021.73
1017.50 1017.92 1017.96 1017.88 1018.26 1018.78 1019.12 1019.39 1019.31 1019.55 1020.09 1020.08 1020.16 1020.37 1020.61 1020.91 1020.93 1021.06 1021.13 1021.14 1021.31 1021.35 1021.27 1021.61 1021.72 1022.03 1022.20 1022.45 1022.48 1022.25 1022.29 1021.91 1021.86
1017.42 1017.64 1017.88 1018.00 1018.52 1019.30 1019.34 1019.48 1019.79 1019.93 1020.26 1020.28 1020.50 1020.60 1020.62 1020.84 1020.82 1021.15 1021.48 1021.46 1021.50 1021.68 1021.74 1022.06 1022.23 1022.25 1022.28 1022.51 1022.68 1022.33 1022.01 1021.68 1021.63
1017.20 1017.55 1017.04 1018.00 1018.11 1019.22 1019.80 1020.18 1020.32 1020.01 1019.89 1020.62 1020.79 1020.87 1021.09 1021.07 1021.14 1020.85 1021.39 1021.90 1021.95 1022.00 1022.03 1022.18 1022.33 1022.36 1022.45 1022.52 1022.68 1022.57 1022.01 1021.57 1021.42
Thickness
5723 5720 5718 5717 5716 5715 5712 5711 5710 5711 5711 5712 5710 5710 5709 5707 5707 5707 5706 5706 5705 5705 5703 5701 5699 5697 5695 5693 5690 5688 5685 5682 5680
5719 5716 5714 5712 5711 5711 5709 5708 5706 5707 5708 5709 5709 5708 5708 5707 5705 5704 5703 5703 5702 5701 5700 5697 5696 5694 5692 5689 5686 5684 5682 5679 5676
5715 5712 5711 5709 5707 5707 5707 5705 5704 5703 5704 5705 5705 5705 5706 5705 5704 5703 5702 5701 5700 5698 5696 5694 5693 5691 5689 5686 5683 5680 5678 5675 5672
5713 5709 5707 5706 5705 5704 5703 5703 5700 5700 5700 5701 5701 5701 5702 5701 5701 5700 5700 5699 5697 5695 5694 5692 5690 5688 5686 5683 5680 5677 5674 5670 5668
5706 5707 5704 5702 5700 5699 5699 5699 5699 5698 5698 5698 5698 5698 5699 5699 5698 5697 5696 5695 5695 5692 5691 5689 5686 5684 5681 5679 5676 5673 5669 5666 5663
5702 5703 5702 5700 5696 5696 5695 5695 5695 5696 5696 5695 5696 5696 5696 5696 5696 5695 5694 5693 5692 5691 5689 5687 5684 5681 5679 5676 5672 5669 5665 5662 5660
5699 5699 5700 5699 5695 5693 5693 5693 5692 5693 5693 5693 5692 5692 5692 5692 5692 5692 5691 5690 5690 5689 5687 5685 5683 5680 5676 5672 5669 5665 5661 5658 5655
5695 5695 5696 5697 5693 5692 5691 5691 5690 5690 5691 5690 5690 5690 5690 5690 5689 5689 5689 5687 5686 5685 5683 5681 5679 5676 5673 5670 5665 5661 5657 5653 5650
5692 5691 5691 5693 5691 5689 5689 5689 5688 5688 5688 5688 5688 5686 5686 5687 5687 5687 5686 5685 5683 5682 5681 5678 5677 5673 5671 5669 5666 5661 5654 5650 5646
5688 5689 5687 5688 5687 5686 5686 5686 5685 5686 5686 5685 5685 5685 5684 5683 5683 5684 5684 5682 5682 5680 5678 5676 5674 5671 5668 5665 5662 5658 5652 5648 5643
5687 5686 5684 5685 5683 5681 5682 5682 5682 5682 5683 5684 5683 5683 5682 5681 5680 5680 5680 5680 5678 5677 5676 5674 5671 5668 5665 5661 5657 5653 5648 5646 5642
5685 5683 5683 5683 5682 5678 5675 5675 5677 5677 5677 5679 5680 5679 5679 5678 5678 5678 5677 5677 5676 5675 5672 5672 5669 5664 5660 5658 5653 5648 5643 5639 5637
5684 5681 5681 5680 5679 5677 5674 5673 5672 5673 5672 5672 5675 5675 5674 5673 5672 5671 5672 5672 5671 5671 5669 5666 5663 5659 5656 5653 5647 5643 5640 5633 5631
5680 5681 5680 5677 5674 5672 5672 5670 5668 5669 5668 5667 5668 5668 5667 5667 5666 5666 5666 5666 5665 5664 5663 5661 5658 5654 5648 5645 5639 5634 5631 5629 5622
5676 5674 5673 5675 5673 5668 5665 5664 5667 5667 5664 5663 5664 5664 5662 5662 5661 5661 5659 5659 5658 5656 5654 5652 5649 5644 5641 5635 5630 5625 5619 5616 5613
5671 5669 5670 5669 5670 5670 5666 5659 5659 5660 5661 5658 5658 5657 5656 5656 5654 5653 5653 5651 5650 5647 5646 5643 5638 5635 5631 5625 5621 5617 5612 5608 5606
5670 5666 5667 5665 5664 5666 5660 5656 5655 5657 5655 5649 5648 5645 5647 5647 5646 5646 5644 5640 5640 5639 5635 5633 5628 5624 5620 5618 5612 5607 5604 5599 5600
5662 5659 5660 5660 5659 5655 5652 5648 5649 5645 5639 5641 5640 5635 5633 5633 5635 5633 5632 5633 5630 5627 5628 5622 5620 5614 5609 5604 5601 5598 5594 5593 5591
5657 5655 5652 5651 5646 5641 5641 5640 5637 5636 5631 5630 5629 5628 5630 5627 5629 5626 5622 5622 5622 5619 5615 5610 5607 5605 5602 5597 5591 5589 5588 5587 5587
5652 5644 5645 5645 5644 5632 5627 5625 5623 5626 5626 5619 5619 5618 5616 5617 5617 5621 5617 5609 5609 5608 5605 5601 5597 5594 5591 5587 5582 5579 5580 5580 5581